ANJALA Weather Reports


Display with metric or nautical units.
time (UTC)temp
F
wind
direction
speed
MPH
gust
MPH
rain 1hr
in
rain 24hr
in
rain mn
in
humidity
%
barometer
mb
20260508130728 58 0.0 0.0 0.00 0.00 0.00 28
20260508124729 57 0.0 0.0 0.00 0.00 0.00 27
20260508122728 58 0.0 0.0 0.00 0.00 0.00 28
20260508120728 57 0.0 0.0 0.00 0.00 0.00 26
20260508114728 58 0.0 0.0 0.00 0.00 0.00 29
20260508112729 57 0.0 0.0 0.00 0.00 0.00 28
20260508110728 57 0.0 0.0 0.00 0.00 0.00 29
20260508104728 56 0.0 0.0 0.00 0.00 0.00 31
20260508100728 55 0.0 0.0 0.00 0.00 0.00 33
20260508094728 55 0.0 0.0 0.00 0.00 0.00 33
20260508092728 53 0.0 0.0 0.00 0.00 0.00 35
20260508090728 53 0.0 0.0 0.00 0.00 0.00 37
20260508084728 52 0.0 0.0 0.00 0.00 0.00 38
20260508082728 51 0.0 0.0 0.00 0.00 0.00 38
20260508080728 50 0.0 0.0 0.00 0.00 0.00 40
20260508074727 50 0.0 0.0 0.00 0.00 0.00 41
20260508072727 49 0.0 0.0 0.00 0.00 0.00 44
20260508070728 48 0.0 0.0 0.00 0.00 0.00 46
20260508064727 47 0.0 0.0 0.00 0.00 0.00 49
20260508061056 46 0.0 0.0 0.00 0.00 0.00 55
20260508060728 46 0.0 0.0 0.00 0.00 0.00 52
20260508054727 46 0.0 0.0 0.00 0.00 0.00 57
20260508052727 45 0.0 0.0 0.00 0.00 0.00 57
20260508050727 45 0.0 0.0 0.00 0.00 0.00 58
20260508044727 44 0.0 0.0 0.00 0.00 0.00 60
20260508042727 43 0.0 0.0 0.00 0.00 0.00 60
20260508040727 41 0.0 0.0 0.00 0.00 0.00 62
20260508032727 39 0.0 0.0 0.00 0.00 0.00 65
20260508024726 36 0.0 0.0 0.00 0.00 0.00 67
20260508022726 35 0.0 0.0 0.00 0.00 0.00 69
20260508020726 35 0.0 0.0 0.00 0.00 0.00 70
20260508014726 35 0.0 0.0 0.00 0.00 0.00 68
20260508012726 37 0.0 0.0 0.00 0.00 0.00 64
20260508010726 39 0.0 0.0 0.00 0.00 0.00 61
20260508004726 38 0.0 0.0 0.00 0.00 0.00 60
20260508002726 39 0.0 0.0 0.00 0.00 0.00 60
20260508000726 39 0.0 0.0 0.00 0.00 0.00 57
20260507234726 39 0.0 0.0 0.00 0.00 0.00 57
20260507232726 39 0.0 0.0 0.00 0.00 0.00 56
20260507230726 39 0.0 0.0 0.00 0.00 0.00 54
20260507224725 38 0.0 0.0 0.00 0.00 0.00 54
20260507222725 38 0.0 0.0 0.00 0.00 0.00 56
20260507220725 38 0.0 0.0 0.00 0.00 0.00 54
20260507214725 38 0.0 0.0 0.00 0.00 0.00 54
20260507212725 40 0.0 0.0 0.00 0.00 0.00 48
20260507210725 41 0.0 0.0 0.00 0.00 0.00 46
20260507202725 42 0.0 0.0 0.00 0.00 0.00 43
20260507200725 41 0.0 0.0 0.00 0.00 0.00 46
20260507192725 41 0.0 0.0 0.00 0.00 0.00 51
20260507190724 43 0.0 0.0 0.00 0.00 0.00 45
20260507184725 46 0.0 0.0 0.00 0.00 0.00 38
20260507181052 51 0.0 0.0 0.00 0.00 0.00 30
20260507180724 48 0.0 0.0 0.00 0.00 0.00 33
20260507174724 51 0.0 0.0 0.00 0.00 0.00 30
20260507172724 52 0.0 0.0 0.00 0.00 0.00 30
20260507170724 54 0.0 0.0 0.00 0.00 0.00 28
20260507164724 54 0.0 0.0 0.00 0.00 0.00 27
20260507162725 54 0.0 0.0 0.00 0.00 0.00 28
20260507150725 57 0.0 0.0 0.00 0.00 0.00 26
20260507142724 56 0.0 0.0 0.00 0.00 0.00 26
20260507140724 57 0.0 0.0 0.00 0.00 0.00 26
20260507134724 57 0.0 0.0 0.00 0.00 0.00 27